TAR745 EDDM-EDDF

Flight info

Callsign TAR745
Flight time 0h 39m
Altitude 24000
Route GIVMI6S GIVMI Y101 ERNAS T161 DEBHI DEBHI1B
Aircraft A20N/M-SDE2E3FGHIRWXY/LB1

Departure

Time 2026-05-07 18:54
Airport Munich Airport (EDDM)

Arrival

Time 2026-05-07 19:33
Airport Frankfurt Main Airport (EDDF)
Time Latitude Longitude Altitude Speed Heading
2026-05-07 18:05 48.35000 11.78380 1466 ft 0 kts 84°
2026-05-07 18:29 48.34998 11.78351 1464 ft 4 kts 80°
2026-05-07 18:30 48.34992 11.78312 1460 ft 4 kts 70°
2026-05-07 18:30 48.34981 11.78276 1456 ft 4 kts 44°
2026-05-07 18:30 48.34964 11.78262 1460 ft 1 kts 353°
2026-05-07 18:30 48.34960 11.78263 1462 ft 0 kts 353°
2026-05-07 18:36 48.34969 11.78262 1459 ft 5 kts 353°
2026-05-07 18:36 48.35030 11.78251 1462 ft 12 kts 353°
2026-05-07 18:36 48.35122 11.78220 1459 ft 15 kts 329°
2026-05-07 18:36 48.35228 11.78178 1465 ft 17 kts 353°
2026-05-07 18:37 48.35332 11.78149 1465 ft 15 kts 329°
2026-05-07 18:37 48.35346 11.77994 1464 ft 17 kts 262°
2026-05-07 18:37 48.35337 11.77870 1466 ft 0 kts 265°
2026-05-07 18:38 48.35336 11.77835 1466 ft 5 kts 274°
2026-05-07 18:39 48.35349 11.77797 1463 ft 4 kts 311°
2026-05-07 18:39 48.35413 11.77770 1459 ft 18 kts 353°
2026-05-07 18:39 48.35550 11.77746 1466 ft 21 kts 354°
2026-05-07 18:39 48.35703 11.77719 1466 ft 23 kts 353°
2026-05-07 18:40 48.35811 11.77703 1463 ft 3 kts 355°
2026-05-07 18:40 48.35827 11.77701 1463 ft 2 kts 355°
2026-05-07 18:40 48.35834 11.77700 1459 ft 0 kts 355°
2026-05-07 18:40 48.35897 11.77689 1461 ft 16 kts 352°
2026-05-07 18:41 48.36001 11.77668 1463 ft 10 kts 352°
2026-05-07 18:41 48.36073 11.77704 1459 ft 12 kts 56°
2026-05-07 18:41 48.36086 11.77834 1465 ft 13 kts 82°
2026-05-07 18:41 48.36099 11.77981 1467 ft 15 kts 83°
2026-05-07 18:42 48.36112 11.78154 1467 ft 18 kts 83°
2026-05-07 18:42 48.36128 11.78354 1467 ft 21 kts 83°
2026-05-07 18:42 48.36145 11.78581 1465 ft 23 kts 83°
2026-05-07 18:42 48.36164 11.78831 1463 ft 25 kts 83°
2026-05-07 18:43 48.36186 11.79103 1468 ft 27 kts 82°
2026-05-07 18:43 48.36209 11.79394 1461 ft 29 kts 85°
2026-05-07 18:43 48.36232 11.79701 1466 ft 30 kts 83°
2026-05-07 18:43 48.36253 11.79983 1465 ft 22 kts 83°
2026-05-07 18:44 48.36271 11.80222 1468 ft 24 kts 85°
2026-05-07 18:44 48.36292 11.80486 1463 ft 26 kts 84°
2026-05-07 18:44 48.36312 11.80743 1461 ft 16 kts 83°
2026-05-07 18:44 48.36325 11.80922 1464 ft 19 kts 83°
2026-05-07 18:45 48.36341 11.81130 1460 ft 21 kts 83°
2026-05-07 18:45 48.36359 11.81366 1465 ft 24 kts 84°
2026-05-07 18:45 48.36380 11.81629 1459 ft 25 kts 83°
2026-05-07 18:45 48.36390 11.81779 1463 ft 7 kts 84°
2026-05-07 18:46 48.36397 11.81852 1464 ft 7 kts 83°
2026-05-07 18:46 48.36395 11.81914 1466 ft 6 kts 101°
2026-05-07 18:46 48.36389 11.81971 1466 ft 5 kts 88°
2026-05-07 18:46 48.36407 11.82006 1463 ft 4 kts 36°
2026-05-07 18:47 48.36430 11.82013 1466 ft 3 kts
2026-05-07 18:47 48.36449 11.82010 1463 ft 2 kts 354°
2026-05-07 18:47 48.36464 11.82008 1466 ft 2 kts 354°
2026-05-07 18:47 48.36477 11.82006 1465 ft 2 kts 354°
2026-05-07 18:48 48.36485 11.82004 1460 ft 0 kts 353°
2026-05-07 18:48 48.36495 11.82002 1458 ft 1 kts 352°
2026-05-07 18:48 48.36498 11.82002 1460 ft 0 kts 352°
2026-05-07 18:49 48.36499 11.82001 1460 ft 0 kts 352°
2026-05-07 18:51 48.36503 11.82001 1461 ft 1 kts 352°
2026-05-07 18:52 48.36505 11.82000 1462 ft 0 kts 352°
2026-05-07 18:52 48.36515 11.81998 1466 ft 8 kts 352°
2026-05-07 18:53 48.36648 11.81950 1463 ft 24 kts 316°
2026-05-07 18:53 48.36654 11.81675 1466 ft 43 kts 265°
2026-05-07 18:53 48.36581 11.80692 1460 ft 142 kts 263°
2026-05-07 18:53 48.36460 11.78914 1919 ft 177 kts 265°
2026-05-07 18:54 48.36327 11.77071 3129 ft 180 kts 265°
2026-05-07 18:54 48.36180 11.75103 4063 ft 195 kts 264°
2026-05-07 18:54 48.36019 11.73012 4519 ft 212 kts 264°
2026-05-07 18:54 48.35835 11.70700 5136 ft 229 kts 263°
2026-05-07 18:55 48.35787 11.68311 6207 ft 231 kts 281°
2026-05-07 18:55 48.36431 11.65992 6807 ft 256 kts 299°
2026-05-07 18:55 48.37373 11.63657 7028 ft 264 kts 300°
2026-05-07 18:55 48.38349 11.61313 7076 ft 265 kts 301°
2026-05-07 18:56 48.39330 11.58970 7080 ft 264 kts 301°
2026-05-07 18:56 48.40304 11.56622 7085 ft 264 kts 300°
2026-05-07 18:56 48.41269 11.54276 7082 ft 264 kts 300°
2026-05-07 18:56 48.42231 11.51924 7113 ft 266 kts 300°
2026-05-07 18:57 48.43214 11.49503 7939 ft 271 kts 300°
2026-05-07 18:57 48.44195 11.47090 9205 ft 270 kts 300°
2026-05-07 18:57 48.45447 11.44952 10261 ft 279 kts 320°
2026-05-07 18:57 48.47150 11.43305 10803 ft 303 kts 325°
2026-05-07 18:58 48.49039 11.41609 11238 ft 327 kts 326°
2026-05-07 18:58 48.51045 11.39858 11971 ft 337 kts 327°
2026-05-07 18:58 48.53096 11.38085 12852 ft 343 kts 327°
2026-05-07 18:58 48.55194 11.36300 13733 ft 349 kts 331°
2026-05-07 18:59 48.57542 11.35226 14510 ft 360 kts 351°
2026-05-07 18:59 48.60072 11.35287 15313 ft 367 kts
2026-05-07 18:59 48.62632 11.35578 16138 ft 370 kts
2026-05-07 18:59 48.65213 11.35889 16947 ft 374 kts
2026-05-07 19:00 48.67822 11.36205 17744 ft 378 kts
2026-05-07 19:00 48.70459 11.36474 18488 ft 380 kts 356°
2026-05-07 19:00 48.73068 11.35968 19009 ft 376 kts 340°
2026-05-07 19:00 48.75417 11.34356 19536 ft 377 kts 323°
2026-05-07 19:01 48.77453 11.31783 20092 ft 380 kts 315°
2026-05-07 19:01 48.79421 11.29056 20649 ft 385 kts 315°
2026-05-07 19:01 48.81405 11.26284 21223 ft 390 kts 315°
2026-05-07 19:01 48.83409 11.23480 21807 ft 394 kts 315°
2026-05-07 19:02 48.85437 11.20646 22404 ft 398 kts 315°
2026-05-07 19:02 48.87486 11.17788 23008 ft 401 kts 315°
2026-05-07 19:02 48.89522 11.14952 23618 ft 404 kts 315°
2026-05-07 19:02 48.91605 11.12050 23970 ft 411 kts 315°
2026-05-07 19:03 48.93745 11.09064 24064 ft 424 kts 315°
2026-05-07 19:03 48.95949 11.05976 24081 ft 437 kts 315°
2026-05-07 19:03 48.98188 11.02833 24087 ft 449 kts 315°
2026-05-07 19:03 49.00533 10.99544 24093 ft 454 kts 315°
2026-05-07 19:04 49.02866 10.96276 24099 ft 456 kts 315°
2026-05-07 19:04 49.05220 10.92970 24102 ft 464 kts 315°
2026-05-07 19:04 49.07604 10.89609 24100 ft 467 kts 315°
2026-05-07 19:04 49.09994 10.86234 24098 ft 469 kts 315°
2026-05-07 19:05 49.12387 10.82852 24094 ft 469 kts 315°
2026-05-07 19:05 49.14785 10.79457 24088 ft 469 kts 315°
2026-05-07 19:05 49.17178 10.76062 24091 ft 470 kts 315°
2026-05-07 19:05 49.19575 10.72655 24086 ft 470 kts 315°
2026-05-07 19:06 49.21932 10.69191 24080 ft 471 kts 314°
2026-05-07 19:06 49.26467 10.62040 24082 ft 471 kts 312°
2026-05-07 19:06 49.28710 10.58393 24083 ft 471 kts 312°
2026-05-07 19:07 49.30971 10.54722 24080 ft 471 kts 312°
2026-05-07 19:07 49.33234 10.51085 24079 ft 472 kts 313°
2026-05-07 19:07 49.35442 10.47369 24080 ft 471 kts 308°
2026-05-07 19:07 49.37310 10.43254 23993 ft 471 kts 300°
2026-05-07 19:08 49.38958 10.38928 23243 ft 467 kts 299°
2026-05-07 19:08 49.40581 10.34648 22472 ft 461 kts 299°
2026-05-07 19:08 49.42183 10.30414 21737 ft 456 kts 299°
2026-05-07 19:08 49.43768 10.26221 21005 ft 451 kts 299°
2026-05-07 19:09 49.45334 10.22077 20317 ft 446 kts 299°
2026-05-07 19:09 49.46880 10.17979 19643 ft 442 kts 299°
2026-05-07 19:09 49.48415 10.13909 18970 ft 437 kts 299°
2026-05-07 19:09 49.49939 10.09884 18324 ft 433 kts 300°
2026-05-07 19:10 49.51793 10.06265 17583 ft 431 kts 315°
2026-05-07 19:10 49.54052 10.03267 16866 ft 428 kts 319°
2026-05-07 19:10 49.56319 10.00324 16167 ft 424 kts 317°
2026-05-07 19:10 49.58388 9.97109 15497 ft 420 kts 310°
2026-05-07 19:11 49.60156 9.93558 14847 ft 416 kts 304°
2026-05-07 19:11 49.61794 9.89897 14209 ft 414 kts 304°
2026-05-07 19:11 49.63423 9.86258 13554 ft 411 kts 304°
2026-05-07 19:11 49.65042 9.82647 12872 ft 407 kts 304°
2026-05-07 19:12 49.66644 9.79069 12192 ft 403 kts 304°
2026-05-07 19:12 49.68227 9.75524 11530 ft 399 kts 304°
2026-05-07 19:12 49.69267 9.73192 11228 ft 397 kts 304°
2026-05-07 19:12 49.70830 9.69684 11048 ft 394 kts 304°
2026-05-07 19:13 49.72345 9.66269 11082 ft 380 kts 304°
2026-05-07 19:13 49.73831 9.62912 11081 ft 377 kts 304°
2026-05-07 19:13 49.75314 9.59566 11072 ft 377 kts 304°
2026-05-07 19:13 49.76796 9.56228 11077 ft 377 kts 304°
2026-05-07 19:14 49.78278 9.52887 11076 ft 377 kts 304°
2026-05-07 19:14 49.79761 9.49529 11076 ft 377 kts 304°
2026-05-07 19:14 49.81238 9.46174 11079 ft 377 kts 303°
2026-05-07 19:14 49.82711 9.42816 11074 ft 377 kts 303°
2026-05-07 19:15 49.84187 9.39452 11060 ft 377 kts 303°
2026-05-07 19:15 49.85592 9.36081 10534 ft 371 kts 298°
2026-05-07 19:15 49.86662 9.32459 9776 ft 368 kts 289°
2026-05-07 19:15 49.87403 9.28695 8969 ft 364 kts 286°
2026-05-07 19:16 49.88108 9.24952 8304 ft 361 kts 286°
2026-05-07 19:16 49.88817 9.21221 8094 ft 360 kts 286°
2026-05-07 19:16 49.89526 9.17500 8062 ft 360 kts 286°
2026-05-07 19:16 49.90238 9.13773 8074 ft 361 kts 286°
2026-05-07 19:17 49.90951 9.10041 8070 ft 360 kts 286°
2026-05-07 19:17 49.91662 9.06314 8079 ft 361 kts 286°
2026-05-07 19:17 49.92375 9.02579 8074 ft 361 kts 286°
2026-05-07 19:17 49.93088 8.98849 8073 ft 361 kts 287°
2026-05-07 19:18 49.93800 8.95115 8071 ft 361 kts 286°
2026-05-07 19:18 49.94505 8.91416 8075 ft 361 kts 287°
2026-05-07 19:18 49.95222 8.87648 8076 ft 361 kts 287°
2026-05-07 19:18 49.95932 8.83907 8074 ft 361 kts 286°
2026-05-07 19:19 49.96609 8.80329 8073 ft 338 kts 286°
2026-05-07 19:19 49.97252 8.76925 8078 ft 317 kts 286°
2026-05-07 19:19 49.97777 8.73731 8081 ft 296 kts 278°
2026-05-07 19:19 49.97790 8.70680 8084 ft 279 kts 263°
2026-05-07 19:20 49.97294 8.67762 8082 ft 276 kts 250°
2026-05-07 19:20 49.96639 8.65050 8081 ft 276 kts 250°
2026-05-07 19:20 49.95967 8.62259 8081 ft 275 kts 250°
2026-05-07 19:20 49.95296 8.59470 8082 ft 275 kts 250°
2026-05-07 19:21 49.94625 8.56685 8080 ft 275 kts 250°
2026-05-07 19:21 49.93953 8.53902 8084 ft 276 kts 250°
2026-05-07 19:21 49.93279 8.51112 8084 ft 275 kts 250°
2026-05-07 19:21 49.92608 8.48331 8080 ft 275 kts 250°
2026-05-07 19:22 49.91935 8.45542 8078 ft 276 kts 250°
2026-05-07 19:22 49.91264 8.42758 8078 ft 275 kts 250°
2026-05-07 19:22 49.90595 8.39977 8071 ft 275 kts 250°
2026-05-07 19:22 49.89922 8.37196 8045 ft 274 kts 250°
2026-05-07 19:23 49.89254 8.34443 7650 ft 272 kts 250°
2026-05-07 19:23 49.88589 8.31704 7220 ft 271 kts 250°
2026-05-07 19:23 49.87929 8.28981 6812 ft 269 kts 250°
2026-05-07 19:23 49.87270 8.26271 6430 ft 266 kts 250°
2026-05-07 19:24 49.86636 8.23659 6292 ft 250 kts 250°
2026-05-07 19:24 49.86050 8.21250 6118 ft 230 kts 250°
2026-05-07 19:24 49.85494 8.18966 5687 ft 224 kts 250°
2026-05-07 19:24 49.85041 8.16682 5161 ft 221 kts 267°
2026-05-07 19:25 49.85344 8.14412 4663 ft 216 kts 302°
2026-05-07 19:25 49.86416 8.12857 4144 ft 213 kts 338°
2026-05-07 19:25 49.87844 8.12356 3990 ft 212 kts 359°
2026-05-07 19:25 49.89255 8.12963 3997 ft 216 kts 33°
2026-05-07 19:26 49.90433 8.14424 3994 ft 218 kts 37°
2026-05-07 19:26 49.91649 8.15828 3993 ft 218 kts 44°
2026-05-07 19:26 49.92638 8.17587 3993 ft 209 kts 51°
2026-05-07 19:26 49.93478 8.19265 3987 ft 186 kts 52°
2026-05-07 19:27 49.94164 8.20901 4004 ft 179 kts 57°
2026-05-07 19:27 49.94804 8.22515 4026 ft 176 kts 57°
2026-05-07 19:27 49.95445 8.24141 4011 ft 177 kts 58°
2026-05-07 19:27 49.96023 8.25862 3976 ft 178 kts 64°
2026-05-07 19:28 49.96502 8.27606 3824 ft 178 kts 66°
2026-05-07 19:28 49.96951 8.29387 3611 ft 177 kts 68°
2026-05-07 19:28 49.97386 8.31159 3383 ft 176 kts 68°
2026-05-07 19:28 49.97816 8.32928 3145 ft 171 kts 68°
2026-05-07 19:29 49.98218 8.34589 2916 ft 160 kts 68°
2026-05-07 19:29 49.98603 8.36179 2710 ft 155 kts 68°
2026-05-07 19:29 49.98978 8.37730 2509 ft 152 kts 69°
2026-05-07 19:29 49.99349 8.39266 2293 ft 151 kts 69°
2026-05-07 19:30 49.99717 8.40790 2087 ft 150 kts 69°
2026-05-07 19:30 50.00070 8.42256 1889 ft 141 kts 69°
2026-05-07 19:30 50.00406 8.43652 1705 ft 136 kts 69°
2026-05-07 19:30 50.00736 8.45022 1519 ft 134 kts 69°
2026-05-07 19:31 50.01063 8.46381 1336 ft 134 kts 69°
2026-05-07 19:31 50.01389 8.47737 1152 ft 134 kts 69°
2026-05-07 19:31 50.01715 8.49092 965 ft 133 kts 69°
2026-05-07 19:31 50.02035 8.50441 794 ft 133 kts 69°
2026-05-07 19:32 50.02325 8.51657 643 ft 132 kts 68°
2026-05-07 19:32 50.02664 8.52974 453 ft 131 kts 70°
2026-05-07 19:32 50.02963 8.54282 331 ft 119 kts 72°
2026-05-07 19:32 50.03207 8.55295 351 ft 85 kts 69°
2026-05-07 19:33 50.03367 8.55765 349 ft 38 kts 46°
2026-05-07 19:33 50.03557 8.56013 354 ft 34 kts 39°
2026-05-07 19:33 50.03677 8.56249 355 ft 27 kts 69°
2026-05-07 19:33 50.03743 8.56527 356 ft 28 kts 68°
2026-05-07 19:34 50.03812 8.56805 356 ft 27 kts 69°
2026-05-07 19:34 50.03877 8.57082 358 ft 27 kts 70°
2026-05-07 19:34 50.03941 8.57344 364 ft 25 kts 69°
2026-05-07 19:34 50.04002 8.57601 367 ft 26 kts 70°
2026-05-07 19:35 50.04052 8.57810 367 ft 15 kts 70°
2026-05-07 19:35 50.04093 8.57984 369 ft 19 kts 69°
2026-05-07 19:35 50.04143 8.58186 373 ft 21 kts 70°
2026-05-07 19:35 50.04196 8.58417 370 ft 24 kts 69°
2026-05-07 19:36 50.04258 8.58670 372 ft 26 kts 69°
2026-05-07 19:36 50.04320 8.58935 375 ft 26 kts 70°
2026-05-07 19:36 50.04385 8.59204 376 ft 23 kts 69°
2026-05-07 19:36 50.04427 8.59374 376 ft 17 kts 69°
2026-05-07 19:37 50.04516 8.59466 374 ft 18 kts
2026-05-07 19:37 50.04655 8.59455 372 ft 22 kts 352°
2026-05-07 19:37 50.04794 8.59385 372 ft 16 kts 333°
2026-05-07 19:37 50.04836 8.59225 370 ft 18 kts 252°
2026-05-07 19:38 50.04815 8.59131 372 ft 9 kts 250°
2026-05-07 19:38 50.04845 8.59068 367 ft 9 kts 334°
2026-05-07 19:38 50.04883 8.59044 367 ft 0 kts 338°